Miscellaneous Local Product
Issued by NWS North Platte, NE

Home | Current Version | Previous Version | Graphics & Text | Print | Product List | Glossary On
Versions: 1 2 3 4 5 6 7 8 9 10 11 12 13 14 15 16 17 18 19 20 21 22 23 24 25 26 27 28 29 30 31 32 33 34 35 36 37 38 39 40 41 42 43 44 45 46 47 48 49 50
000
AXUS43 KLBF 241610
MISLBF


WESTERN AND NORTH CENTRAL NEBRASKA HOURLY WEATHER ROUNDUP
NATIONAL WEATHER SERVICE NORTH PLATTE NE
1100 AM CDT SAT JUN 24 2017

NOTE: "FAIR" INDICATES FEW OR NO CLOUDS BELOW 12,000 FEET WITH NO
SIGNIFICANT WEATHER AND/OR OBSTRUCTIONS TO VISIBILITY.

NOTE: STATIONS NOT REPORTING VARIABLES SUCH AS SKY/WEATHER OR
PRESSURE ARE PROVIDED BY RAWS AND APRS NETWORKS AND ARE NOT UNDER
NATIONAL WEATHER SERVICE QUALITY CONTROL.

...OBSERVATIONS IN AND NEAR THE EASTERN PANHANDLE OF NEBRASKA...

CITY           SKY/WX    TMP DP  RH WIND       PRES   REMARKS
PINE RIDGE     CLOUDY    63  37  38 NW7       30.30R
GORDON         FAIR      64  35  34 NW12      30.30R
CHADRON        SUNNY     69  34  27 MISG      30.29S
ALLIANCE       SUNNY     67  33  28 W8        30.30S
SIDNEY         CLOUDY    66  38  35 S9        30.32S
CRESCENT LAKE    N/A     68  34  28 S5          N/A
$$

...OBSERVATIONS IN NORTHERN NEBRASKA AND FAR SOUTHERN SOUTH DAKOTA...

CITY           SKY/WX    TMP DP  RH WIND       PRES   REMARKS
WINNER         FAIR      73  33  23 NW17G29   30.20S
VALENTINE      MOSUNNY   73  27  18 NW21G28   30.24S
THEDFORD       SUNNY     72  34  24 NW16G26   30.27S
AINSWORTH      SUNNY     71  33  25 NW20G25   30.24S
O`NEILL        SUNNY     72  37  28 W16G24    30.21S
ORD            SUNNY     71  36  27 W12G18    30.22S
BROKEN BOW     PTSUNNY   71  40  32 SW12      30.25F
VALENTINE NWR    N/A     67  36  32 NW12        N/A
HALSEY           N/A     71  31  22 W8          N/A
BUTTE            N/A     68  35  29 W22G33      N/A
CHAMBERS         N/A     74  42  31 CALM        N/A
EWING            N/A     70  44  39 W10G18      N/A
$$

...OBSERVATIONS IN SOUTHWEST NEBRASKA AND FAR NORTHEAST COLORADO...

CITY           SKY/WX    TMP DP  RH WIND       PRES   REMARKS
WRAY           PTSUNNY   68  45  42 SE9G16    30.31S
IMPERIAL       CLOUDY    66  41  40 S8        30.31S
OGALLALA       CLOUDY    66  36  33 S8        30.30S
NORTH PLATTE   PTSUNNY   71  36  27 SW9       30.28F
MCCOOK         CLOUDY    65  45  48 CALM      30.30S
LEXINGTON      CLOUDY    70  40  34 W7        30.28S
STAPLETON        N/A     70  38  31 CALM        N/A
GOTHENBURG       N/A     65  41  41 SW3         N/A
CALLAWAY         N/A     65  42  43 SW9         N/A
$$

...OBSERVATIONS IN CENTRAL LINCOLN COUNTY AREA...

CITY           SKY/WX    TMP DP  RH WIND       PRES   REMARKS
N.P. AIRPORT   PTSUNNY   71  36  27 SW9       30.28F
N.P. DOWNTOWN    N/A     71  41  34 CALM        N/A
N.P. SOUTHEAST   N/A     69  39  33 SW3         N/A
N.P. HILLCREST   N/A     68  38  33 W8          N/A
$$

...SOME OBSERVATIONS FROM AROUND THE REGION...

CITY           SKY/WX    TMP DP  RH WIND       PRES   REMARKS
DENVER         PTSUNNY   63  47  55 N5        30.32F
LIMON          CLOUDY    63  46  54 S7        30.34S
ASPEN          SUNNY     67  31  26 VRB5      30.35F
LARAMIE        SUNNY     57  33  40 SE8       30.38S
CASPER         SUNNY     62  30  29 N5        30.37S
CHEYENNE       PTSUNNY   59  30  33 SE8       30.37S
SCOTTSBLUFF    CLOUDY    63  38  39 MISG      30.32R
GRAND ISLAND   CLOUDY    70  41  34 W9        30.25S
OMAHA          SUNNY     73  43  33 W13       30.18S
SIOUX FALLS    MOSUNNY   69  44  40 W15G26    30.09F
PIERRE         SUNNY     64  39  39 NW17G25   30.20R
RAPID CITY     MOSUNNY   69  33  26 NW21G29   30.27S
BISMARCK       MOSUNNY   56  38  50 NW23G35   30.20R
KANSAS CITY    MOSUNNY   72  46  39 CALM      30.24S
HILL CITY      CLOUDY    69  49  48 SE8       30.30S
WICHITA        CLOUDY    73  53  49 S7        30.27S
DODGE CITY     PTSUNNY   72  52  49 SE14      30.29R
OKLAHOMA CITY  CLOUDY    75  53  46 NE13      30.23R
DALLAS         LGT RAIN  71  67  87 E7        30.15S
AMARILLO       CLOUDY    63  54  72 E13       30.32R
$$




USA.gov is the U.S. government's official web portal to all federal, state and local government web resources and services.